W7CBM Weather Reports


time (UTC)temp
F
wind
direction
speed
knots
gust
knots
rain 1hr
in
rain 24hr
in
rain mn
in
humidity
%
barometer
mb
20260502152101 61 299 1.7 2.6 0.00 0.00 0.00 34 1022.3
20260502151530 60 300 0.9 2.6 0.00 0.00 0.00 35 1022.6
20260502151030 59 299 0.0 0.0 0.00 0.00 0.00 37 1022.5
20260502150531 59 300 0.0 0.0 0.00 0.00 0.00 36 1022.6
20260502130529 39 299 1.7 1.7 0.00 0.00 0.00 72 1020.4
20260502123529 39 300 0.0 1.7 0.00 0.00 0.00 72 1020.4
20260502123029 39 299 0.0 1.7 0.00 0.00 0.00 72 1020.3
20260502122529 39 299 0.0 2.6 0.00 0.00 0.00 72 1020.2
20260502122059 39 300 0.0 2.6 0.00 0.00 0.00 71 1020.2
20260502121529 39 300 1.7 1.7 0.00 0.00 0.00 71 1020.5
20260502121029 39 300 0.0 0.0 0.00 0.00 0.00 71 1020.6
20260502115528 40 300 0.0 1.7 0.00 0.00 0.00 71 1020.8
20260502114029 40 300 0.0 0.0 0.00 0.00 0.00 71 1020.8
20260502113558 40 299 0.0 1.7 0.00 0.00 0.00 71 1020.8
20260502113058 40 300 0.0 1.7 0.00 0.00 0.00 71 1020.7
20260502112558 40 300 1.7 1.7 0.00 0.00 0.00 71 1020.8
20260502112058 40 300 0.0 0.0 0.00 0.00 0.00 71 1020.8
20260502111558 40 300 0.0 0.0 0.00 0.00 0.00 70 1020.8
20260502111028 40 299 0.0 0.0 0.00 0.00 0.00 70 1020.8
20260502110558 41 299 0.0 0.0 0.00 0.00 0.00 70 1021.1
20260502110058 41 300 0.0 0.0 0.00 0.00 0.00 70 1021.2
20260502105558 41 300 0.0 0.0 0.00 0.00 0.00 70 1021.1
20260502105028 41 300 0.0 1.7 0.00 0.00 0.00 70 1021.2
20260502103558 41 300 0.0 0.9 0.00 0.00 0.00 69 1021.0
20260502103028 41 300 0.9 0.9 0.00 0.00 0.00 69 1020.9
20260502102528 41 299 0.0 0.0 0.00 0.00 0.00 69 1020.9
20260502102058 41 301 0.0 0.0 0.00 0.00 0.00 69 1020.9
20260502101057 42 299 0.0 0.0 0.00 0.00 0.00 68 1021.0
20260502100528 42 300 0.0 0.0 0.00 0.00 0.00 68 1021.0
20260502091027 43 300 0.0 0.0 0.00 0.00 0.00 67 1021.0
20260502090557 43 300 0.0 0.0 0.00 0.00 0.00 66 1020.9
20260502071056 46 296 0.0 1.7 0.00 0.00 0.00 62 1020.9
20260502070526 46 295 0.0 0.0 0.00 0.00 0.00 61 1021.0
20260502064556 47 296 0.0 2.6 0.00 0.00 0.00 59 1021.3
20260502064056 47 296 1.7 2.6 0.00 0.00 0.00 59 1021.2
20260502063556 47 296 0.0 0.9 0.00 0.00 0.00 58 1021.1
20260502063056 47 296 0.0 0.9 0.00 0.00 0.00 57 1021.1
20260502062555 48 296 0.9 0.9 0.00 0.00 0.00 57 1021.1
20260502062056 48 296 0.0 1.7 0.00 0.00 0.00 57 1021.2
20260502061555 48 296 0.0 1.7 0.00 0.00 0.00 57 1020.8
20260502061056 48 296 1.7 1.7 0.00 0.00 0.00 56 1020.8
20260502060556 48 296 0.0 1.7 0.00 0.00 0.00 56 1020.8
20260502060055 48 296 0.0 1.7 0.00 0.00 0.00 56 1020.7
20260502055556 48 296 0.0 0.0 0.00 0.00 0.00 54 1020.7
20260502055055 49 296 0.0 0.0 0.00 0.00 0.00 54 1021.1
20260502054555 49 296 0.0 0.0 0.00 0.00 0.00 54 1021.1
20260502054055 49 296 0.0 0.0 0.00 0.00 0.00 53 1021.0
20260502053555 50 296 0.0 0.9 0.00 0.00 0.00 52 1020.9
20260502053055 50 297 0.0 0.9 0.00 0.00 0.00 52 1020.9
20260502052555 50 296 0.0 0.0 0.00 0.00 0.00 51 1020.8
20260502052055 51 296 0.0 0.0 0.00 0.00 0.00 50 1021.1
20260502051555 51 296 0.0 0.0 0.00 0.00 0.00 49 1020.9
20260502050055 52 296 0.0 0.9 0.00 0.00 0.00 47 1020.8
20260502045555 53 296 0.0 0.9 0.00 0.00 0.00 46 1021.1
20260502044555 53 296 0.0 2.6 0.00 0.00 0.00 45 1021.1
20260502044054 53 297 0.0 2.6 0.00 0.00 0.00 45 1021.1
20260502043554 53 296 0.0 1.7 0.00 0.00 0.00 44 1020.9
20260502043054 53 296 0.0 1.7 0.00 0.00 0.00 44 1020.9
20260502042055 53 296 0.0 5.2 0.00 0.00 0.00 43 1020.8
20260502041555 53 295 0.9 5.2 0.00 0.00 0.00 42 1020.2
20260502041054 54 293 0.0 0.9 0.00 0.00 0.00 41 1020.5
20260502035554 55 293 0.0 0.0 0.00 0.00 0.00 38 1020.4
20260502034554 56 292 0.0 0.0 0.00 0.00 0.00 36 1020.5
20260502034054 56 293 0.0 0.9 0.00 0.00 0.00 35 1020.5
20260502033054 57 293 0.0 0.9 0.00 0.00 0.00 33 1020.3
20260502032554 57 294 0.0 1.7 0.00 0.00 0.00 32 1020.3
20260502031554 58 293 1.7 2.6 0.00 0.00 0.00 31 1019.8
20260502031054 58 293 0.9 1.7 0.00 0.00 0.00 30 1019.8
20260502030054 59 292 0.0 0.9 0.00 0.00 0.00 28 1019.6
20260502025054 59 292 0.0 2.6 0.00 0.00 0.00 27 1019.4
20260502024554 60 293 1.7 5.2 0.00 0.00 0.00 26 1019.7
20260502024054 60 292 1.7 5.2 0.00 0.00 0.00 26 1019.6
20260502023554 60 292 0.9 3.5 0.00 0.00 0.00 26 1019.6
20260502022553 61 292 2.6 7.0 0.00 0.00 0.00 25 1019.5
20260502021554 61 324 2.6 6.1 0.00 0.00 0.00 26 1018.5
20260502020554 62 282 5.2 7.8 0.00 0.00 0.00 26 1018.7
20260502015553 63 313 2.6 7.0 0.00 0.00 0.00 28 1018.8
20260502015053 63 321 2.6 7.0 0.00 0.00 0.00 27 1018.5
20260502014553 64 286 5.2 7.0 0.00 0.00 0.00 27 1018.9
20260502014053 64 332 3.5 7.0 0.00 0.00 0.00 27 1018.7
20260502013553 64 280 2.6 8.7 0.00 0.00 0.00 27 1018.8
20260502013053 64 331 4.3 11.3 0.00 0.00 0.00 28 1018.8
20260502012553 64 337 2.6 11.3 0.00 0.00 0.00 28 1018.7
20260502011553 64 327 2.6 11.3 0.00 0.00 0.00 27 1017.2
20260502011053 64 322 0.9 11.3 0.00 0.00 0.00 28 1017.2
20260502010053 65 21 6.1 10.4 0.00 0.00 0.00 28 1017.3
20260502005553 65 284 6.1 8.7 0.00 0.00 0.00 27 1017.3
20260502005053 65 300 6.1 8.7 0.00 0.00 0.00 28 1017.3
20260502004553 65 348 5.2 11.3 0.00 0.00 0.00 27 1017.3
20260502004053 65 303 3.5 11.3 0.00 0.00 0.00 27 1017.3
20260502003552 66 336 5.2 10.4 0.00 0.00 0.00 27 1017.6
20260502003053 66 12 3.5 13.0 0.00 0.00 0.00 27 1017.6
20260502002553 66 284 5.2 13.0 0.00 0.00 0.00 27 1017.7
20260502002053 66 42 3.5 8.7 0.00 0.00 0.00 27 1017.7
20260502001553 67 291 7.8 13.9 0.00 0.00 0.00 26 1017.8
20260502001052 67 340 7.0 13.9 0.00 0.00 0.00 26 1017.8
20260502000552 67 284 3.5 10.4 0.00 0.00 0.00 26 1017.8
20260502000052 67 253 7.0 10.4 0.00 0.00 0.00 27 1017.9
20260501235552 67 18 4.3 9.6 0.00 0.00 0.00 26 1017.9
20260501235052 67 9 4.3 10.4 0.00 0.00 0.00 26 1017.9
20260501234052 67 317 2.6 10.4 0.00 0.00 0.00 26 1017.9
20260501233552 67 294 1.7 13.0 0.00 0.00 0.00 26 1017.9
20260501233052 67 333 5.2 13.0 0.00 0.00 0.00 26 1017.9
20260501232552 68 336 2.6 9.6 0.00 0.00 0.00 26 1018.3
20260501232052 67 289 7.0 8.7 0.00 0.00 0.00 26 1017.9
20260501231552 68 359 3.5 8.7 0.00 0.00 0.00 24 1018.3
20260501231052 69 272 7.0 9.6 0.00 0.00 0.00 24 1018.6
20260501230551 69 265 7.8 9.6 0.00 0.00 0.00 24 1018.6
20260501230051 68 352 1.7 11.3 0.00 0.00 0.00 25 1018.3
20260501225051 67 308 1.7 11.3 0.00 0.00 0.00 26 1018.4
20260501224552 68 297 6.1 11.3 0.00 0.00 0.00 24 1018.5
20260501224051 68 241 7.8 10.4 0.00 0.00 0.00 25 1018.6
20260501223551 68 265 7.0 9.6 0.00 0.00 0.00 24 1018.6
20260501222551 68 274 7.0 12.2 0.00 0.00 0.00 24 1018.6
20260501222051 68 269 5.2 12.2 0.00 0.00 0.00 24 1018.6
20260501221551 68 301 4.3 11.3 0.00 0.00 0.00 24 1019.3
20260501221051 68 260 3.5 10.4 0.00 0.00 0.00 24 1019.3
20260501220551 68 302 2.6 13.0 0.00 0.00 0.00 24 1019.4
20260501220051 67 35 1.7 13.0 0.00 0.00 0.00 24 1019.2
20260501215551 66 284 1.7 12.2 0.00 0.00 0.00 24 1019.2
20260501215051 67 284 7.0 12.2 0.00 0.00 0.00 25 1019.4
20260501214051 67 282 1.7 12.2 0.00 0.00 0.00 24 1019.4
20260501213051 66 7 3.5 13.0 0.00 0.00 0.00 25 1019.4
20260501212551 66 311 2.6 13.9 0.00 0.00 0.00 24 1019.5
20260501212051 67 8 1.7 13.9 0.00 0.00 0.00 23 1019.6
20260501211550 67 294 3.5 8.7 0.00 0.00 0.00 23 1019.8
20260501211050 66 7 5.2 10.4 0.00 0.00 0.00 24 1019.9
20260501210550 66 287 7.0 14.8 0.00 0.00 0.00 24 1019.9
20260501210050 67 359 4.3 14.8 0.00 0.00 0.00 24 1019.9
20260501205550 67 314 0.9 10.4 0.00 0.00 0.00 24 1020.0
20260501204550 67 324 5.2 9.6 0.00 0.00 0.00 24 1020.1
20260501204051 68 311 3.5 8.7 0.00 0.00 0.00 21 1020.4
20260501203550 68 275 6.1 8.7 0.00 0.00 0.00 23 1020.3
20260501203050 68 248 2.6 11.3 0.00 0.00 0.00 21 1020.3
20260501202050 67 278 6.1 10.4 0.00 0.00 0.00 23 1020.0
20260501201050 67 295 5.2 7.0 0.00 0.00 0.00 24 1020.5
20260501200550 67 225 2.6 9.6 0.00 0.00 0.00 22 1020.7
20260501200050 67 350 6.1 9.6 0.00 0.00 0.00 23 1020.8
20260501195050 66 240 3.5 7.8 0.00 0.00 0.00 22 1020.5
20260501194550 67 257 3.5 7.8 0.00 0.00 0.00 21 1020.7
20260501194050 67 279 3.5 7.8 0.00 0.00 0.00 21 1020.7
20260501193550 66 243 1.7 10.4 0.00 0.00 0.00 21 1020.4
20260501193050 66 283 3.5 10.4 0.00 0.00 0.00 23 1020.6
20260501192550 66 336 4.3 10.4 0.00 0.00 0.00 21 1020.6
20260501192049 65 226 2.6 4.3 0.00 0.00 0.00 22 1020.7
20260501191550 65 224 1.7 7.8 0.00 0.00 0.00 22 1021.6
20260501191049 66 214 3.5 7.8 0.00 0.00 0.00 21 1021.7
20260501190549 66 236 2.6 6.1 0.00 0.00 0.00 23 1021.7
20260501190049 65 236 1.7 6.1 0.00 0.00 0.00 23 1021.8
20260501185550 64 271 3.5 7.8 0.00 0.00 0.00 23 1021.5
20260501185049 65 302 1.7 10.4 0.00 0.00 0.00 22 1021.9
20260501184549 65 14 6.1 10.4 0.00 0.00 0.00 22 1021.9
20260501184049 66 286 3.5 7.8 0.00 0.00 0.00 23 1021.9
20260501183050 65 286 2.6 12.2 0.00 0.00 0.00 22 1022.0
20260501182549 64 299 4.3 12.2 0.00 0.00 0.00 24 1021.7
20260501181549 63 354 5.2 8.7 0.00 0.00 0.00 26 1021.8
20260501181049 63 11 1.7 8.7 0.00 0.00 0.00 25 1021.9
20260501180549 63 9 2.6 8.7 0.00 0.00 0.00 24 1022.0
20260501175549 62 29 3.5 10.4 0.00 0.00 0.00 25 1021.7
20260501174549 62 311 2.6 12.2 0.00 0.00 0.00 25 1021.8
20260501173549 62 338 0.0 8.7 0.00 0.00 0.00 24 1021.9
20260501173049 62 6 3.5 9.6 0.00 0.00 0.00 25 1021.9
20260501172549 62 90 5.2 9.6 0.00 0.00 0.00 27 1022.0
20260501172049 62 119 3.5 4.3 0.00 0.00 0.00 29 1022.1
20260501171049 61 123 4.3 4.3 0.00 0.00 0.00 30 1022.5
20260501170549 61 130 0.9 4.3 0.00 0.00 0.00 29 1022.4
20260501165048 60 179 4.3 7.0 0.00 0.00 0.00 32 1022.2
20260501164549 60 179 0.9 7.0 0.00 0.00 0.00 32 1022.2
20260501164049 60 59 2.6 5.2 0.00 0.00 0.00 32 1022.2
20260501163548 59 352 0.9 7.0 0.00 0.00 0.00 32 1022.2
20260501163048 59 40 1.7 7.0 0.00 0.00 0.00 33 1022.2
20260501162548 59 245 3.5 3.5 0.00 0.00 0.00 35 1022.2
20260501162048 59 244 1.7 3.5 0.00 0.00 0.00 36 1022.2
20260501161548 58 245 1.7 6.1 0.00 0.00 0.00 35 1021.9
20260501161048 58 245 0.0 6.1 0.00 0.00 0.00 35 1021.9
20260501160548 58 269 6.1 6.1 0.00 0.00 0.00 36 1022.0
20260501160048 57 292 0.0 3.5 0.00 0.00 0.00 36 1021.6
20260501154548 56 293 1.7 5.2 0.00 0.00 0.00 38 1021.6
20260501154048 56 293 1.7 5.2 0.00 0.00 0.00 38 1021.7
20260501153048 55 291 1.7 5.2 0.00 0.00 0.00 38 1021.3
20260501152548 54 298 1.7 3.5 0.00 0.00 0.00 41 1021.3